Location: Unspecified
(49.2170°N, 0.0000°E)
Time: 10:24:59
(UTC+00:00)

Vanguard 2 Rocket - Pass Details

Date: 23 January 2021
Orbit: 554 x 3326 km, 32.9° (Epoch: 25 February)

Event Time Altitude Azimuth Distance (km) Brightness Sun altitude
Rises 18:54:37 0° 256° (WSW) 4,832 12.1 -21.3°
Reaches altitude 10° 18:59:43 10° 238° (WSW) 3,259 10.6 -22.2°
Maximum altitude 19:04:05 16° 203° (SSW) 2,340 9.3 -22.9°
Drops below altitude 10° 19:07:29 10° 166° (SSE) 2,408 8.9 -23.4°
Enters shadow 19:07:54 - 162° (SSE) 2,473 9.0 -23.5°
